Regional Weather Roundup
Issued by NWS

Home | Current Version | Previous Version | Graphics & Text | Print | Product List | Glossary On
Versions: 1 2 3 4 5 6 7 8 9 10 11 12 13 14 15 16 17 18 19 20 21 22 23 24 25 26 27 28 29 30 31 32 33 34 35 36 37 38 39 40 41 42 43 44 45 46 47 48 49 50
000
ASUS43 KFSD 280902
RWRSD

WEATHER ROUNDUP FOR SOUTH DAKOTA
NATIONAL WEATHER SERVICE SIOUX FALLS SD
300 AM CST FRI NOV 28 2014

NOTE: "FAIR" INDICATES FEW OR NO CLOUDS BELOW 12,000 FEET WITH NO
SIGNIFICANT WEATHER AND/OR OBSTRUCTIONS TO VISIBILITY.


SDZ001>005-009-010-012>017-281000-
NORTHWEST AND NORTH CENTRAL SOUTH DAKOTA

CITY           SKY/WX    TMP DP  RH WIND       PRES   REMARKS
BUFFALO          N/A     37  28  70 W7        29.65F
FAITH            N/A     31  23  72 S6        29.72F WCI  25
MOBRIDGE       PTCLDY    12   7  80 E13       29.79F WCI  -3
$$

SDZ012>016-024>037-041>051-057-063-072>074-281000-
SOUTHWEST AND SOUTH CENTRAL SOUTH DAKOTA

CITY           SKY/WX    TMP DP  RH WIND       PRES   REMARKS
RAPID CTY ARPT MOCLDY    38  27  64 E3        29.75F
PIERRE         CLOUDY    20  17  88 NE5       29.80R WCI  13
CUSTER         PTCLDY    36  25  64 SW7       29.84F
ELLSWORTH AFB  MOCLDY    43  28  55 W8        29.73F
PHILIP         PTCLDY    26  22  84 CALM      29.78S
PINE RIDGE     CLOUDY    27  24  89 E5        29.85F WCI  22
WINNER         FAIR      44  28  53 SW7       29.79F
$$

SDZ004>011-016>023-039-040-281000-
NORTHEAST SOUTH DAKOTA

CITY           SKY/WX    TMP DP  RH WIND       PRES   REMARKS
ABERDEEN       PTCLDY    10   6  84 NE5       29.90S WCI   2
WATERTOWN      CLEAR     13   8  81 SE9       29.88F WCI   1
SISSETON         N/A      6   3  87 S12       29.95F WCI  -9
$$

SDZ017-020-022-023-036>040-048>070-281000-
SOUTHEAST SOUTH DAKOTA

CITY           SKY/WX    TMP DP  RH WIND       PRES   REMARKS
SIOUX FALLS    CLEAR     18  13  80 SE9       29.91F WCI   7
HURON          CLEAR     18  13  80 SE10      29.85F WCI   6
MITCHELL       PTCLDY    22  17  81 SE9       29.87S WCI  12
YANKTON        CLEAR     19  16  86 SE9       29.91F WCI   9
$$

ABBREVIATIONS USED IN REMARKS
   TC - TEMPERATURE IN CELSIUS
  WCI - WIND CHILL INDEX
   HX - HEAT INDEX
  VSB - VISIBILITY




USA.gov is the U.S. government's official web portal to all federal, state and local government web resources and services.